EN

Hourly Weather Dzielawy

Today, 22 October, Thursday

Time Temperature Precipitation Wind Pressure Humidity
00:00 +10°C° 0 mm 5 mps 744 mmHg 77%
01:00 +10°C° 0 mm 5 mps 744 mmHg 77%
02:00 +10°C° 0 mm 5 mps 744 mmHg 77%
03:00 +10°C° 0 mm 5 mps 744 mmHg 76%
04:00 +10°C° 0 mm 5 mps 744 mmHg 75%
05:00 +10°C° 0 mm 5 mps 744 mmHg 75%
06:00 +10°C° 0 mm 5 mps 744 mmHg 75%
07:00 +10°C° 0 mm 5 mps 744 mmHg 75%
08:00 +12°C° 0 mm 5 mps 744 mmHg 71%
09:00 +14°C° 0 mm 5 mps 745 mmHg 67%
10:00 +15°C° 0 mm 5 mps 745 mmHg 64%
11:00 +16°C° 0 mm 5 mps 745 mmHg 63%
12:00 +18°C° 0 mm 4 mps 745 mmHg 61%
13:00 +18°C° 0 mm 4 mps 744 mmHg 60%
14:00 +17°C° 0 mm 4 mps 744 mmHg 64%
15:00 +17°C° 0 mm 4 mps 744 mmHg 68%
16:00 +15°C° 0 mm 4 mps 744 mmHg 72%
17:00 +14°C° 0 mm 4 mps 744 mmHg 73%
18:00 +13°C° 0 mm 4 mps 744 mmHg 75%
19:00 +12°C° 0 mm 4 mps 744 mmHg 77%
20:00 +12°C° 0 mm 4 mps 744 mmHg 76%
21:00 +12°C° 0 mm 4 mps 744 mmHg 76%
22:00 +12°C° 0 mm 4 mps 744 mmHg 75%
23:00 +12°C° 0 mm 3 mps 744 mmHg 75%

Tomorrow, 23 October, Friday

Time Temperature Precipitation Wind Pressure Humidity
00:00 +12°C° 0 mm 3 mps 744 mmHg 75%
01:00 +12°C° 0 mm 3 mps 744 mmHg 75%
02:00 +11°C° 0 mm 3 mps 744 mmHg 77%
03:00 +11°C° 0 mm 3 mps 743 mmHg 78%
04:00 +10°C° 0 mm 3 mps 743 mmHg 80%
05:00 +10°C° 0 mm 3 mps 743 mmHg 80%
06:00 +10°C° 0 mm 4 mps 743 mmHg 80%
07:00 +10°C° 0 mm 4 mps 742 mmHg 81%
08:00 +12°C° 0 mm 4 mps 742 mmHg 76%
09:00 +13°C° 0 mm 4 mps 742 mmHg 72%
10:00 +15°C° 0 mm 4 mps 742 mmHg 68%
11:00 +17°C° 0 mm 4 mps 742 mmHg 66%
12:00 +17°C° 0 mm 4 mps 742 mmHg 65%
13:00 +18°C° 0 mm 4 mps 741 mmHg 63%
14:00 +17°C° 0 mm 4 mps 741 mmHg 67%
15:00 +17°C° 0 mm 3 mps 741 mmHg 71%
16:00 +16°C° 0 mm 3 mps 741 mmHg 75%
17:00 +15°C° 0 mm 2 mps 741 mmHg 77%
18:00 +15°C° 0 mm 2 mps 741 mmHg 79%
19:00 +14°C° 0 mm 2 mps 741 mmHg 81%
20:00 +14°C° 0 mm 2 mps 741 mmHg 82%
21:00 +13°C° 0 mm 2 mps 741 mmHg 83%
22:00 +13°C° 0 mm 2 mps 741 mmHg 83%
23:00 +13°C° 0.1 mm 2 mps 741 mmHg 84%

Day after tomorrow, 24 October, Saturday

Time Temperature Precipitation Wind Pressure Humidity
00:00 +13°C° 0.1 mm 2 mps 740 mmHg 84%
01:00 +13°C° 0.1 mm 2 mps 740 mmHg 84%
02:00 +13°C° 0.7 mm 2 mps 740 mmHg 87%
03:00 +13°C° 0.7 mm 2 mps 740 mmHg 89%
04:00 +13°C° 0.7 mm 2 mps 740 mmHg 92%
05:00 +13°C° 0.5 mm 2 mps 741 mmHg 91%
06:00 +13°C° 0.5 mm 2 mps 741 mmHg 91%
07:00 +12°C° 0.5 mm 3 mps 741 mmHg 91%
08:00 +13°C° 0 mm 3 mps 741 mmHg 86%
09:00 +14°C° 0 mm 3 mps 742 mmHg 81%
10:00 +15°C° 0 mm 4 mps 742 mmHg 76%
11:00 +17°C° 0.2 mm 4 mps 742 mmHg 72%
12:00 +16°C° 0.2 mm 5 mps 742 mmHg 68%
13:00 +16°C° 0.2 mm 5 mps 742 mmHg 64%
14:00 +17°C° 0.1 mm 4 mps 743 mmHg 67%
15:00 +15°C° 0.1 mm 4 mps 743 mmHg 70%
16:00 +14°C° 0.1 mm 3 mps 743 mmHg 74%
17:00 +13°C° 0 mm 3 mps 744 mmHg 74%
18:00 +12°C° 0 mm 3 mps 744 mmHg 75%
19:00 +11°C° 0 mm 3 mps 745 mmHg 75%
20:00 +10°C° 0 mm 2 mps 745 mmHg 76%
21:00 +10°C° 0 mm 2 mps 745 mmHg 77%
22:00 +10°C° 0 mm 1 mps 745 mmHg 78%
23:00 +10°C° 0 mm 1 mps 745 mmHg 79%

25 October, Sunday

Time Temperature Precipitation Wind Pressure Humidity
00:00 +10°C° 0 mm 1 mps 745 mmHg 80%
01:00 +9°C° 0 mm 1 mps 745 mmHg 81%
02:00 +9°C° 0 mm 1 mps 745 mmHg 82%
03:00 +8°C° 0 mm 2 mps 745 mmHg 83%
04:00 +8°C° 0 mm 2 mps 745 mmHg 84%
05:00 +8°C° 0 mm 2 mps 745 mmHg 85%
06:00 +8°C° 0 mm 2 mps 745 mmHg 86%
07:00 +8°C° 0 mm 2 mps 745 mmHg 87%
08:00 +9°C° 0 mm 2 mps 745 mmHg 81%
09:00 +11°C° 0 mm 3 mps 745 mmHg 75%
10:00 +13°C° 0 mm 3 mps 745 mmHg 69%
11:00 +14°C° 0 mm 3 mps 744 mmHg 66%
12:00 +14°C° 0 mm 3 mps 744 mmHg 63%
13:00 +16°C° 0 mm 3 mps 744 mmHg 60%
14:00 +16°C° 0 mm 2 mps 743 mmHg 63%
15:00 +15°C° 0 mm 2 mps 743 mmHg 67%
16:00 +14°C° 0 mm 2 mps 743 mmHg 70%
17:00 +13°C° 0 mm 2 mps 743 mmHg 72%
18:00 +12°C° 0 mm 2 mps 743 mmHg 75%
19:00 +10°C° 0 mm 2 mps 743 mmHg 77%
20:00 +10°C° 0 mm 2 mps 743 mmHg 79%
21:00 +10°C° 0 mm 2 mps 743 mmHg 80%
22:00 +9°C° 0 mm 3 mps 742 mmHg 82%
23:00 +9°C° 0 mm 2 mps 742 mmHg 84%

26 October, Monday

Time Temperature Precipitation Wind Pressure Humidity
00:00 +9°C° 0 mm 2 mps 742 mmHg 85%
01:00 +9°C° 0 mm 2 mps 742 mmHg 87%
02:00 +9°C° 0 mm 2 mps 741 mmHg 88%
03:00 +8°C° 0 mm 2 mps 741 mmHg 88%
04:00 +8°C° 0 mm 2 mps 741 mmHg 88%
05:00 +8°C° 0 mm 2 mps 741 mmHg 88%
06:00 +8°C° 0 mm 2 mps 741 mmHg 88%
07:00 +8°C° 0 mm 2 mps 741 mmHg 88%
08:00 +10°C° 0 mm 3 mps 741 mmHg 82%
09:00 +11°C° 0 mm 3 mps 741 mmHg 75%
10:00 +13°C° 0 mm 3 mps 741 mmHg 68%
11:00 +14°C° 0 mm 4 mps 740 mmHg 65%
12:00 +15°C° 0 mm 4 mps 740 mmHg 61%
13:00 +16°C° 0 mm 5 mps 740 mmHg 58%
14:00 +17°C° 0 mm 4 mps 740 mmHg 62%
15:00 +15°C° 0 mm 4 mps 739 mmHg 67%
16:00 +16°C° 0 mm 3 mps 739 mmHg 71%
17:00 +14°C° 0 mm 3 mps 739 mmHg 73%
18:00 +13°C° 0 mm 3 mps 739 mmHg 76%
19:00 +13°C° 0 mm 2 mps 740 mmHg 78%
20:00 +13°C° 0 mm 2 mps 740 mmHg 80%
21:00 +12°C° 0 mm 2 mps 740 mmHg 81%
22:00 +12°C° 0 mm 2 mps 740 mmHg 83%
23:00 +12°C° 0 mm 1 mps 740 mmHg 84%

27 October, Tuesday

Time Temperature Precipitation Wind Pressure Humidity
00:00 +11°C° 0 mm 1 mps 740 mmHg 84%
01:00 +11°C° 0 mm 1 mps 740 mmHg 85%
02:00 +11°C° 0 mm 1 mps 740 mmHg 85%
03:00 +11°C° 0 mm 1 mps 740 mmHg 86%
04:00 +11°C° 0 mm 1 mps 740 mmHg 86%
05:00 +11°C° 0.1 mm 1 mps 740 mmHg 86%
06:00 +11°C° 0.1 mm 1 mps 740 mmHg 86%
07:00 +11°C° 0.1 mm 1 mps 741 mmHg 86%
08:00 +12°C° 0 mm 1 mps 741 mmHg 83%
09:00 +13°C° 0 mm 2 mps 741 mmHg 81%
10:00 +14°C° 0 mm 2 mps 741 mmHg 78%
11:00 +14°C° 0 mm 2 mps 741 mmHg 76%
12:00 +15°C° 0 mm 2 mps 742 mmHg 74%
13:00 +14°C° 0 mm 3 mps 742 mmHg 72%
14:00 +15°C° 0 mm 2 mps 742 mmHg 74%
15:00 +15°C° 0 mm 2 mps 742 mmHg 76%
16:00 +14°C° 0 mm 1 mps 742 mmHg 78%
17:00 +14°C° 0 mm 1 mps 743 mmHg 80%
18:00 +13°C° 0 mm 1 mps 743 mmHg 82%
19:00 +13°C° 0 mm 2 mps 743 mmHg 85%
20:00 +13°C° 0 mm 2 mps 744 mmHg 85%
21:00 +13°C° 0 mm 2 mps 744 mmHg 85%
22:00 +13°C° 0 mm 2 mps 744 mmHg 85%
23:00 +12°C° 0 mm 2 mps 744 mmHg 85%
Show more